Weather History for Chester, SC

Change the Weather History Date:

Friday, February 10, 2012

  Actual Average (KUZA) Record (KUZA)
Temperature  
Mean Temperature 41 °F -  
Max Temperature 50 °F 52 °F 75 °F (1954)
Min Temperature 32 °F 30 °F 12 °F (1979)
Degree Days  
Heating Degree Days 24    
Moisture  
Dew Point 35 °F    
Average Humidity 85    
Maximum Humidity 100    
Minimum Humidity 62    
Precipitation  
Precipitation 0.00 in - - ()
Sea Level Pressure  
Sea Level Pressure 30.11 in    
Wind  
Wind Speed 3 mph (South)    
Max Wind Speed 7 mph    
Max Gust Speed -    
Visibility 9 miles    
Events      
Averages and records for this station are not official NWS values.
T = Trace of Precipitation, MM = Missing Value Source: NWS Daily Summary

Daily Weather History Graph

Daily Weather History Graph

Search for Another Location

Airport:

Trip Planner

Search our weather history database for the weather conditions in past years. The results will help you decide how hot, cold, wet, or windy it might be!

Date:

Astronomy

Feb. 10, 2012 Rise Set
Actual Time 7:16 AM EST 6:02 PM EST
Civil Twilight 6:49 AM EST 6:28 PM EST
Nautical Twilight 6:20 AM EST 6:58 PM EST
Astronomical Twilight 5:50 AM EST 7:27 PM EST
Moon 9:27 PM EST (2/10) 8:34 AM EST (2/10)
Length of Visible Light 11h 38m
Length of Day
10h 46m
Waning Gibbous, 90% of the Moon is Illuminated
Feb 10
Waning Gibbous
Feb 14
Last Quarter
Feb 21
New
Feb 29
First Quarter
Mar 8
Full

Hourly Weather History & Observations

Time (EST) Temp. Windchill Dew Point Humidity Pressure Visibility Wind Dir Wind Speed Gust Speed Precip Events Conditions
12:15 AM 33.8 °F 30.8 °F 32.0 °F 93% 30.19 in 10.0 mi SE 3.5 mph - N/A   Clear
12:35 AM 35.6 °F - 32.0 °F 87% 30.20 in 10.0 mi Calm Calm - N/A   Clear
12:55 AM 35.6 °F 30.7 °F 32.0 °F 87% 30.20 in 10.0 mi SSE 5.8 mph - N/A   Clear
1:15 AM 35.6 °F 32.8 °F 32.0 °F 87% 30.20 in 10.0 mi South 3.5 mph - N/A   Clear
1:35 AM 35.6 °F 31.7 °F 32.0 °F 87% 30.20 in 10.0 mi South 4.6 mph - N/A   Clear
2:15 AM 33.8 °F 30.8 °F 32.0 °F 93% 30.19 in 10.0 mi South 3.5 mph - N/A   Clear
2:35 AM 33.8 °F 29.6 °F 32.0 °F 93% 30.18 in 10.0 mi South 4.6 mph - N/A   Clear
2:55 AM 33.8 °F - 32.0 °F 93% 30.17 in 10.0 mi Calm Calm - N/A   Clear
3:15 AM 33.8 °F 30.8 °F 32.0 °F 93% 30.17 in 10.0 mi South 3.5 mph - N/A   Clear
3:35 AM 33.8 °F 29.6 °F 32.0 °F 93% 30.17 in 10.0 mi South 4.6 mph - N/A   Clear
3:55 AM 32.0 °F 27.5 °F 32.0 °F 100% 30.17 in 10.0 mi South 4.6 mph - N/A   Clear
4:15 AM 33.8 °F 30.8 °F 32.0 °F 93% 30.16 in 10.0 mi South 3.5 mph - N/A   Clear
4:35 AM 32.0 °F 28.7 °F 32.0 °F 100% 30.16 in 10.0 mi South 3.5 mph - N/A   Clear
4:55 AM 33.8 °F 30.8 °F 32.0 °F 93% 30.16 in 10.0 mi South 3.5 mph - N/A   Clear
5:15 AM 33.8 °F 30.8 °F 32.0 °F 93% 30.16 in 10.0 mi South 3.5 mph - N/A   Clear
5:35 AM 33.8 °F 30.8 °F 32.0 °F 93% 30.16 in 10.0 mi South 3.5 mph - N/A   Clear
5:55 AM 33.8 °F 30.8 °F 32.0 °F 93% 30.16 in 10.0 mi SSW 3.5 mph - N/A   Clear
6:15 AM 33.8 °F 30.8 °F 32.0 °F 93% 30.15 in 7.0 mi SSW 3.5 mph - N/A   Clear
6:35 AM 32.0 °F - 32.0 °F 100% 30.14 in 7.0 mi Calm Calm - N/A   Clear
6:55 AM 32.0 °F 28.7 °F 32.0 °F 100% 30.16 in 5.0 mi SSW 3.5 mph - N/A   Clear
7:15 AM 32.0 °F - 32.0 °F 100% 30.16 in 7.0 mi Calm Calm - N/A   Clear
7:35 AM 32.0 °F 28.7 °F 32.0 °F 100% 30.17 in 5.0 mi SW 3.5 mph - N/A   Clear
7:55 AM 32.0 °F 28.7 °F 32.0 °F 100% 30.18 in 5.0 mi SW 3.5 mph - N/A   Clear
8:15 AM 33.8 °F - 33.8 °F 100% 30.17 in 7.0 mi Calm Calm - N/A   Clear
8:35 AM 35.6 °F - 33.8 °F 93% 30.17 in 7.0 mi Calm Calm - N/A   Clear
8:55 AM 37.4 °F - 35.6 °F 93% 30.18 in 7.0 mi Calm Calm - N/A   Clear
9:15 AM 37.4 °F - 35.6 °F 93% 30.18 in 7.0 mi Calm Calm - N/A   Clear
9:35 AM 37.4 °F 34.9 °F 35.6 °F 93% 30.18 in 7.0 mi SW 3.5 mph - N/A   Clear
9:55 AM 37.4 °F - 35.6 °F 93% 30.17 in 7.0 mi Calm Calm - N/A   Scattered Clouds
10:15 AM 39.2 °F - 37.4 °F 93% 30.16 in 7.0 mi Calm Calm - N/A   Scattered Clouds
10:35 AM 39.2 °F - 37.4 °F 93% 30.15 in 7.0 mi Calm Calm - N/A   Mostly Cloudy
10:55 AM 41.0 °F - 37.4 °F 87% 30.15 in 7.0 mi Calm Calm - N/A   Overcast
11:15 AM 41.0 °F - 37.4 °F 87% 30.14 in 7.0 mi Calm Calm - N/A   Overcast
11:35 AM 42.8 °F - 35.6 °F 76% 30.13 in 10.0 mi Calm Calm - N/A   Mostly Cloudy
11:55 AM 44.6 °F 43.1 °F 37.4 °F 76% 30.12 in 10.0 mi SSW 3.5 mph - N/A   Mostly Cloudy
12:15 PM 44.6 °F 42.2 °F 37.4 °F 76% 30.10 in 10.0 mi South 4.6 mph - N/A   Overcast
12:35 PM 46.4 °F 43.5 °F 37.4 °F 71% 30.08 in 10.0 mi South 5.8 mph - N/A   Overcast
12:55 PM 46.4 °F 44.3 °F 37.4 °F 71% 30.07 in 10.0 mi South 4.6 mph - N/A   Overcast
1:15 PM 48.2 °F - 37.4 °F 66% 30.06 in 10.0 mi South 4.6 mph - N/A   Scattered Clouds
1:35 PM 48.2 °F - 37.4 °F 66% 30.06 in 10.0 mi SSW 5.8 mph - N/A   Scattered Clouds
1:55 PM 48.2 °F - 37.4 °F 66% 30.05 in 10.0 mi SW 4.6 mph - N/A   Mostly Cloudy
2:15 PM 48.2 °F - 37.4 °F 66% 30.05 in 10.0 mi SW 4.6 mph - N/A   Overcast
2:35 PM 48.2 °F - 37.4 °F 66% 30.05 in 10.0 mi WSW 3.5 mph - N/A   Overcast
2:55 PM 50.0 °F - 37.4 °F 62% 30.04 in 10.0 mi WSW 3.5 mph - N/A   Overcast
3:15 PM 48.2 °F - 37.4 °F 66% 30.04 in 10.0 mi Calm Calm - N/A   Overcast
3:35 PM 48.2 °F - 37.4 °F 66% 30.04 in 10.0 mi Calm Calm - N/A   Overcast
3:55 PM 48.2 °F - 39.2 °F 71% 30.02 in 10.0 mi Calm Calm - N/A   Overcast
4:15 PM 48.2 °F - 39.2 °F 71% 30.01 in 10.0 mi Calm Calm - N/A   Overcast
4:35 PM 48.2 °F - 39.2 °F 71% 30.00 in 10.0 mi SE 6.9 mph - N/A   Overcast
4:55 PM 48.2 °F - 39.2 °F 71% 29.99 in 10.0 mi South 3.5 mph - N/A   Overcast
5:15 PM 48.2 °F - 39.2 °F 71% 29.98 in 10.0 mi Calm Calm - N/A   Overcast
5:35 PM 46.4 °F - 41.0 °F 81% 29.98 in 10.0 mi Calm Calm - N/A   Overcast
5:55 PM 46.4 °F - 41.0 °F 81% 29.97 in 10.0 mi Calm Calm - N/A   Overcast
6:15 PM 46.4 °F 45.2 °F 41.0 °F 81% 29.97 in 10.0 mi South 3.5 mph - N/A   Overcast
6:35 PM 46.4 °F - 41.0 °F 81% 29.97 in 10.0 mi Calm Calm - N/A   Overcast
6:55 PM 46.4 °F - 41.0 °F 81% 29.97 in 10.0 mi Calm Calm - N/A   Overcast
7:15 PM 44.6 °F - 41.0 °F 87% 29.97 in 10.0 mi Calm Calm - N/A   Overcast
7:35 PM 44.6 °F - 41.0 °F 87% 29.97 in 10.0 mi Calm Calm - N/A   Overcast
7:55 PM 44.6 °F - 41.0 °F 87% 29.96 in 10.0 mi Calm Calm - N/A   Overcast
8:15 PM 44.6 °F - 41.0 °F 87% 29.95 in 10.0 mi Calm Calm - N/A   Overcast
8:35 PM 44.6 °F - 41.0 °F 87% 29.95 in 10.0 mi Calm Calm - N/A   Overcast
8:55 PM 44.6 °F - 41.0 °F 87% 29.95 in 10.0 mi Calm Calm - N/A   Overcast
9:15 PM 44.6 °F - 41.0 °F 87% 29.94 in 10.0 mi Calm Calm - N/A   Overcast
9:35 PM 44.6 °F 43.1 °F 41.0 °F 87% 29.94 in 10.0 mi SSW 3.5 mph - N/A   Overcast
9:55 PM 44.6 °F - 41.0 °F 87% 29.93 in 10.0 mi Calm Calm - N/A   Overcast
10:15 PM 44.6 °F - 41.0 °F 87% 29.92 in 10.0 mi Calm Calm - N/A   Overcast
10:35 PM 44.6 °F 43.1 °F 42.8 °F 93% 29.92 in 10.0 mi SSW 3.5 mph - N/A   Overcast
10:55 PM 44.6 °F 42.2 °F 41.0 °F 87% 29.90 in 10.0 mi South 4.6 mph - N/A   Overcast
11:15 PM 44.6 °F 42.2 °F 41.0 °F 87% 29.90 in 10.0 mi South 4.6 mph - N/A   Overcast
11:35 PM 44.6 °F - 41.0 °F 87% 29.90 in 10.0 mi Calm Calm - N/A   Overcast
11:55 PM 44.6 °F - 41.0 °F 87% 29.90 in 10.0 mi Calm Calm - N/A   Overcast